Osceola, IA

12:22 AM CDT on September 30, 2016 (GMT -0500)
Osceola Municipal

Weather History for KI75 - September, 2013

Change the Weather History Date:

Thursday, September 12, 2013

  Actual Average (KLWD) Record (KLWD)
Temperature  
Mean Temperature 68 °F 67 °F  
Max Temperature 78 °F 78 °F 95 °F (1991)
Min Temperature 57 °F 56 °F 40 °F (2014)
Degree Days  
Heating Degree Days 0 2  
Month to date heating degree days 15  
Since 1 July heating degree days 23  
Cooling Degree Days 3 3  
Month to date cooling degree days 58  
Year to date cooling degree days 896  
Growing Degree Days 18 (Base 50)    
Moisture  
Dew Point 51 °F    
Average Humidity 56    
Maximum Humidity 88    
Minimum Humidity 24    
Precipitation  
Precipitation 0.00 in 0.10 in 6.38 in (1949)
Month to date precipitation 1.72  
Sea Level Pressure  
Sea Level Pressure 30.15 in    
Wind  
Wind Speed 7 mph (NNW)    
Max Wind Speed 16 mph    
Max Gust Speed 24 mph    
Visibility 10 miles    
Events      
T = Trace of Precipitation, MM = Missing Value Source: NWS Daily Summary

Daily Weather History Graph

Daily Weather History Graph

Search for Another Location

Airport or City:

Trip Planner

Search our weather history database for the weather conditions in past years. The results will help you decide how hot, cold, wet, or windy it might be!

Date:

Astronomy

Sep. 12, 2013 Rise Set
Actual Time 6:52 AM CDT 7:28 PM CDT
Civil Twilight 6:24 AM CDT 7:56 PM CDT
Nautical Twilight 5:52 AM CDT 8:28 PM CDT
Astronomical Twilight 5:18 AM CDT 9:02 PM CDT
Moon 2:24 PM CDT (9/12) No Moon Set
Length of Visible Light 13h 31m
Length of Day
12h 35m
Waxing Crescent, 50% of the Moon is Illuminated
Sep 12
Waxing Crescent
Sep 12
First Quarter
Sep 19
Full
Sep 26
Last Quarter
Oct 4
New

Hourly Weather History & Observations

Time (CDT) Temp. Dew Point Humidity Pressure Visibility Wind Dir Wind Speed Gust Speed Precip Events Conditions
12:15 AM 71.4 °F 65.7 °F 82% 30.09 in 10.0 mi SSW 3.5 mph - N/A   Mostly Cloudy
12:35 AM 70.7 °F 65.7 °F 84% 30.09 in 10.0 mi SSE 3.5 mph - N/A   Mostly Cloudy
12:55 AM 70.0 °F 66.2 °F 88% 30.08 in 10.0 mi Calm Calm - N/A   Overcast
1:15 AM 69.8 °F 66.2 °F 88% 30.09 in 10.0 mi Calm Calm - N/A   Overcast
1:35 AM 70.0 °F 66.4 °F 88% 30.09 in 10.0 mi WSW 5.8 mph - N/A   Overcast
1:55 AM 70.3 °F 66.0 °F 86% 30.10 in 10.0 mi WSW 5.8 mph - N/A   Overcast
2:15 AM 70.9 °F 65.3 °F 82% 30.10 in 10.0 mi WSW 3.5 mph - N/A   Overcast
2:35 AM 70.7 °F 64.6 °F 81% 30.10 in 10.0 mi WNW 5.8 mph - N/A   Overcast
2:55 AM 70.0 °F 64.0 °F 81% 30.11 in 10.0 mi West 4.6 mph - N/A   Overcast
3:15 AM 70.0 °F 63.9 °F 81% 30.11 in 10.0 mi West 4.6 mph - N/A   Overcast
3:35 AM 69.8 °F 63.5 °F 80% 30.10 in 10.0 mi WSW 3.5 mph - N/A   Mostly Cloudy
3:55 AM 69.8 °F 62.8 °F 78% 30.10 in 10.0 mi WSW 5.8 mph - N/A   Scattered Clouds
4:15 AM 68.9 °F 62.6 °F 80% 30.10 in 10.0 mi SW 5.8 mph - N/A   Scattered Clouds
4:35 AM 68.0 °F 62.1 °F 81% 30.12 in 10.0 mi WSW 4.6 mph - N/A   Clear
4:55 AM 67.5 °F 62.1 °F 83% 30.12 in 10.0 mi WSW 5.8 mph - N/A   Scattered Clouds
5:15 AM 67.3 °F 62.1 °F 83% 30.13 in 10.0 mi WNW 6.9 mph - N/A   Scattered Clouds
5:35 AM 67.1 °F 61.9 °F 83% 30.12 in 10.0 mi West 4.6 mph - N/A   Clear
5:55 AM 66.2 °F 61.5 °F 85% 30.12 in 10.0 mi West 4.6 mph - N/A   Clear
6:15 AM 65.7 °F 60.6 °F 84% 30.12 in 10.0 mi West 6.9 mph - N/A   Clear
6:35 AM 64.9 °F 59.4 °F 82% 30.12 in 10.0 mi NW 8.1 mph - N/A   Clear
6:55 AM 63.9 °F 59.0 °F 84% 30.12 in 10.0 mi NW 5.8 mph - N/A   Clear
7:15 AM 63.5 °F 58.3 °F 83% 30.13 in 10.0 mi NW 8.1 mph - N/A   Clear
7:35 AM 63.5 °F 57.6 °F 81% 30.13 in 10.0 mi NNW 6.9 mph - N/A   Clear
7:55 AM 64.8 °F 57.2 °F 76% 30.14 in 10.0 mi NNW 6.9 mph - N/A   Clear
8:15 AM 64.8 °F 56.5 °F 74% 30.15 in 10.0 mi NNW 8.1 mph - N/A   Clear
8:35 AM 66.2 °F 55.4 °F 68% 30.16 in 10.0 mi North 9.2 mph - N/A   Clear
8:55 AM 66.4 °F 54.7 °F 66% 30.16 in 10.0 mi North 8.1 mph - N/A   Clear
9:15 AM 68.4 °F 54.0 °F 60% 30.17 in 10.0 mi North 5.8 mph - N/A   Clear
9:35 AM 70.0 °F 53.4 °F 56% 30.17 in 10.0 mi North 8.1 mph - N/A   Clear
9:55 AM 71.1 °F 53.6 °F 54% 30.18 in 10.0 mi North 9.2 mph - N/A   Clear
10:15 AM 72.0 °F 50.9 °F 47% 30.18 in 10.0 mi NNE 10.4 mph 17.3 mph N/A   Clear
10:35 AM 72.9 °F 50.5 °F 45% 30.19 in 10.0 mi North 9.2 mph - N/A   Clear
10:55 AM 73.4 °F 46.9 °F 39% 30.19 in 10.0 mi North 10.4 mph - N/A   Clear
11:15 AM 74.7 °F 44.8 °F 34% 30.19 in 10.0 mi North 11.5 mph 21.9 mph N/A   Clear
11:35 AM 74.8 °F 43.2 °F 32% 30.20 in 10.0 mi North 13.8 mph 20.7 mph N/A   Clear
11:55 AM 75.0 °F 43.9 °F 33% 30.19 in 10.0 mi NNE 11.5 mph 18.4 mph N/A   Clear
12:15 PM 75.9 °F 42.3 °F 30% 30.19 in 10.0 mi NNW 16.1 mph 24.2 mph N/A   Clear
12:35 PM 76.8 °F 42.8 °F 30% 30.19 in 10.0 mi North 15.0 mph 21.9 mph N/A   Clear
12:55 PM 76.8 °F 41.2 °F 28% 30.18 in 10.0 mi North 11.5 mph 21.9 mph N/A   Clear
1:15 PM 77.2 °F 42.6 °F 29% 30.18 in 10.0 mi North 13.8 mph 21.9 mph N/A   Clear
1:35 PM 77.2 °F 41.2 °F 28% 30.18 in 10.0 mi North 15.0 mph 24.2 mph N/A   Clear
1:55 PM 77.9 °F 41.5 °F 27% 30.17 in 10.0 mi NNW 13.8 mph 21.9 mph N/A   Clear
2:15 PM 78.1 °F 41.5 °F 27% 30.17 in 10.0 mi NNW 12.7 mph 19.6 mph N/A   Clear
2:35 PM 78.6 °F 40.8 °F 26% 30.16 in 10.0 mi North 12.7 mph 21.9 mph N/A   Clear
2:55 PM 78.6 °F 40.3 °F 25% 30.16 in 10.0 mi North 11.5 mph 19.6 mph N/A   Clear
3:15 PM 78.4 °F 39.2 °F 24% 30.15 in 10.0 mi North 11.5 mph 21.9 mph N/A   Clear
3:35 PM 78.4 °F 40.1 °F 25% 30.15 in 10.0 mi NNW 10.4 mph 20.7 mph N/A   Clear
3:55 PM 78.1 °F 39.7 °F 25% 30.15 in 10.0 mi North 10.4 mph 20.7 mph N/A   Clear
4:15 PM 77.9 °F 40.6 °F 26% 30.14 in 10.0 mi North 12.7 mph 18.4 mph N/A   Clear
4:35 PM 77.7 °F 41.0 °F 27% 30.14 in 10.0 mi North 13.8 mph 20.7 mph N/A   Clear
4:55 PM 77.0 °F 40.5 °F 27% 30.14 in 10.0 mi NNW 15.0 mph 19.6 mph N/A   Clear
5:15 PM 76.5 °F 41.0 °F 28% 30.14 in 10.0 mi North 13.8 mph - N/A   Clear
5:35 PM 75.7 °F 40.5 °F 28% 30.14 in 10.0 mi North 12.7 mph 21.9 mph N/A   Clear
5:55 PM 74.8 °F 39.4 °F 28% 30.14 in 10.0 mi North 12.7 mph 23.0 mph N/A   Clear
6:15 PM 74.1 °F 39.9 °F 29% 30.14 in 10.0 mi North 11.5 mph 18.4 mph N/A   Clear
6:35 PM 72.9 °F 40.6 °F 31% 30.15 in 10.0 mi North 12.7 mph 19.6 mph N/A   Clear
6:55 PM 71.6 °F 40.6 °F 33% 30.15 in 10.0 mi North 10.4 mph - N/A   Clear
7:15 PM 69.4 °F 42.4 °F 38% 30.15 in 10.0 mi North 6.9 mph - N/A   Clear
7:35 PM 67.1 °F 43.5 °F 42% 30.16 in 10.0 mi North 6.9 mph - N/A   Clear
7:55 PM 65.3 °F 44.4 °F 47% 30.16 in 10.0 mi North 6.9 mph - N/A   Clear
8:15 PM 63.0 °F 45.5 °F 53% 30.17 in 10.0 mi North 4.6 mph - N/A   Clear
8:35 PM 61.3 °F 45.7 °F 56% 30.17 in 10.0 mi North 5.8 mph - N/A   Clear
8:55 PM 62.1 °F 45.5 °F 55% 30.17 in 10.0 mi NNW 4.6 mph - N/A   Clear
9:15 PM 61.9 °F 45.5 °F 55% 30.18 in 10.0 mi NNW 4.6 mph - N/A   Clear
9:35 PM 60.6 °F 45.9 °F 58% 30.17 in 10.0 mi North 5.8 mph - N/A   Clear
9:55 PM 60.4 °F 46.4 °F 60% 30.17 in 10.0 mi North 5.8 mph - N/A   Clear
10:15 PM 59.0 °F 46.8 °F 64% 30.17 in 10.0 mi North 5.8 mph - N/A   Clear
10:35 PM 58.6 °F 46.8 °F 65% 30.18 in 10.0 mi North 6.9 mph - N/A   Clear
10:55 PM 58.3 °F 47.1 °F 66% 30.18 in 10.0 mi North 6.9 mph - N/A   Clear
11:15 PM 58.3 °F 47.3 °F 67% 30.18 in 10.0 mi North 5.8 mph - N/A   Clear
11:35 PM 58.3 °F 47.3 °F 67% 30.18 in 10.0 mi North 5.8 mph - N/A   Clear
11:55 PM 57.2 °F 47.3 °F 69% 30.18 in 10.0 mi North 4.6 mph - N/A   Clear